Location: Kuffner-Sternwarte
(48.2130°N, 16.2960°E)
Time: 04:18:40
(UTC+02:00)

ACS3 Solar Sail - Pass Details

Date: 28 September 2024
Orbit: 963 x 1036 km, 97.4° (Epoch: 04 October)

Event Time Altitude Azimuth Distance (km) Brightness Sun altitude
Exits shadow 21:44:57 22° 209° (SSW) 2,069 3.4 -30.1°
Maximum altitude 21:48:34 41° 266° (W) 1,461 2.9 -30.6°
Drops below altitude 10° 21:54:34 10° 335° (NNW) 2,828 4.9 -31.4°
Sets 21:57:15 0° 343° (NNW) 3,776 5.6 -31.8°
